Weather History for Crosby, ND

Change the Weather History Date:

Thursday, March 21, 2013

  Actual Average (KISN) Record (KISN)
Temperature  
Mean Temperature 10 °F 32 °F  
Max Temperature 15 °F 43 °F 72 °F (1910)
Min Temperature 5 °F 20 °F -15 °F (1899)
Degree Days  
Heating Degree Days 55 33  
Month to date heating degree days 801  
Since 1 July heating degree days 7569  
Cooling Degree Days 0 0  
Month to date cooling degree days 0  
Year to date cooling degree days 0  
Moisture  
Dew Point 4 °F    
Average Humidity 76    
Maximum Humidity 85    
Minimum Humidity 62    
Precipitation  
Precipitation 0.00 in 0.02 in 0.53 in (1941)
Month to date precipitation 0.46  
Year to date precipitation 1.44  
Sea Level Pressure  
Sea Level Pressure 29.91 in    
Wind  
Wind Speed 22 mph (ESE)    
Max Wind Speed 30 mph    
Max Gust Speed 34 mph    
Visibility 9 miles    
Events      
T = Trace of Precipitation, MM = Missing Value Source: NWS Daily Summary

Daily Weather History Graph

Daily Weather History Graph

Search for Another Location

Airport:

Trip Planner

Search our weather history database for the weather conditions in past years. The results will help you decide how hot, cold, wet, or windy it might be!

Date:

Astronomy

Mar. 21, 2013 Rise Set
Actual Time 7:53 AM CDT 8:08 PM CDT
Civil Twilight 7:21 AM CDT 8:39 PM CDT
Nautical Twilight 6:44 AM CDT 9:17 PM CDT
Astronomical Twilight 6:05 AM CDT 9:55 PM CDT
Moon 2:15 PM CDT (3/21) 4:41 AM CDT (3/21)
Length of Visible Light 13h 17m
Length of Day
12h 14m
Waxing Gibbous, 69% of the Moon is Illuminated
Mar 21
Waxing Gibbous
Mar 27
Full
Apr 2
Last Quarter
Apr 10
New
Apr 18
First Quarter

Hourly Weather History & Observations

Time (CDT) Temp. Windchill Dew Point Humidity Pressure Visibility Wind Dir Wind Speed Gust Speed Precip Events Conditions
12:35 AM 10.4 °F -9.9 °F 5.0 °F 79% 29.95 in 10.0 mi ESE 24.2 mph 29.9 mph N/A   Clear
1:15 AM 10.4 °F -10.3 °F 5.0 °F 79% 29.93 in 9.0 mi ESE 25.3 mph - N/A   Clear
1:35 AM 10.4 °F -10.7 °F 5.0 °F 79% 29.92 in 7.0 mi ESE 26.5 mph - N/A   Clear
1:55 AM 10.4 °F -11.0 °F 5.0 °F 79% 29.91 in 7.0 mi SE 27.6 mph - N/A   Scattered Clouds
2:15 AM 10.4 °F -11.4 °F 5.0 °F 79% 29.91 in - SE 28.8 mph - N/A   Mostly Cloudy
2:35 AM 10.4 °F -9.9 °F 5.0 °F 79% 29.92 in - SE 24.2 mph - N/A   Mostly Cloudy
2:55 AM 10.4 °F -8.6 °F 3.2 °F 73% 29.92 in - ESE 20.7 mph - N/A   Mostly Cloudy
3:15 AM 10.4 °F -7.7 °F 3.2 °F 73% 29.93 in 10.0 mi ESE 18.4 mph - N/A   Mostly Cloudy
3:35 AM 10.4 °F -7.2 °F 1.4 °F 67% 29.92 in 10.0 mi SE 17.3 mph 23.0 mph N/A   Partly Cloudy
3:55 AM 8.6 °F -7.7 °F 1.4 °F 73% 29.91 in 10.0 mi ESE 13.8 mph - N/A   Clear
4:15 AM 8.6 °F -11.4 °F 1.4 °F 73% 29.89 in - SE 21.9 mph 28.8 mph N/A   Clear
4:35 AM 8.6 °F -14.1 °F 1.4 °F 73% 29.87 in - SE 29.9 mph - N/A   Clear
4:55 AM 8.6 °F -11.4 °F 1.4 °F 73% 29.87 in - SE 21.9 mph 34.5 mph N/A   Clear
5:15 AM 8.6 °F -13.8 °F 1.4 °F 73% 29.87 in - SE 28.8 mph - N/A   Clear
5:35 AM 8.6 °F -12.7 °F 1.4 °F 73% 29.87 in - SE 25.3 mph 31.1 mph N/A   Partly Cloudy
5:55 AM 8.6 °F -12.7 °F -0.4 °F 67% 29.87 in - SE 25.3 mph 32.2 mph N/A   Clear
6:15 AM 8.6 °F -9.5 °F -0.4 °F 67% 29.89 in 10.0 mi SE 17.3 mph - N/A   Clear
6:35 AM 8.6 °F -7.7 °F -0.4 °F 67% 29.89 in 10.0 mi SE 13.8 mph - N/A   Clear
6:55 AM 6.8 °F -11.8 °F -0.4 °F 72% 29.89 in 10.0 mi ESE 17.3 mph - N/A   Clear
7:15 AM 6.8 °F -13.4 °F -0.4 °F 72% 29.89 in - ESE 20.7 mph - N/A   Clear
7:35 AM 6.8 °F -12.4 °F -0.4 °F 72% 29.89 in 10.0 mi ESE 18.4 mph 23.0 mph N/A   Clear
7:55 AM 6.8 °F -13.8 °F -0.4 °F 72% 29.87 in 8.0 mi ESE 21.9 mph - N/A   Clear
8:15 AM 6.8 °F -12.9 °F -0.4 °F 72% 29.88 in 10.0 mi ESE 19.6 mph - N/A   Clear
8:35 AM 6.8 °F -10.7 °F -0.4 °F 72% 29.88 in 10.0 mi ESE 15.0 mph 20.7 mph N/A   Partly Cloudy
8:55 AM 5.0 °F -12.3 °F -0.4 °F 78% 29.89 in 10.0 mi East 13.8 mph 18.4 mph N/A   Partly Cloudy
9:15 AM 5.0 °F -10.8 °F -0.4 °F 78% 29.90 in 10.0 mi East 11.5 mph - N/A   Partly Cloudy
9:35 AM 6.8 °F -13.8 °F -0.4 °F 72% 29.89 in 10.0 mi ESE 21.9 mph - N/A   Clear
9:55 AM 6.8 °F -13.4 °F -0.4 °F 72% 29.89 in 9.0 mi SE 20.7 mph - N/A   Clear
10:15 AM 8.6 °F -11.4 °F -0.4 °F 67% 29.89 in 10.0 mi SE 21.9 mph - N/A   Clear
10:35 AM 8.6 °F -10.5 °F 1.4 °F 73% 29.89 in 10.0 mi SE 19.6 mph - N/A   Partly Cloudy
10:55 AM 10.4 °F -9.1 °F 1.4 °F 67% 29.88 in 7.0 mi SE 21.9 mph - N/A   Mostly Cloudy
11:35 AM 10.4 °F -8.2 °F 1.4 °F 67% 29.90 in 10.0 mi ESE 19.6 mph - N/A   Scattered Clouds
11:55 AM 12.2 °F -5.3 °F 5.0 °F 73% 29.90 in 10.0 mi ESE 18.4 mph - N/A   Mostly Cloudy
12:15 PM 14.0 °F -3.4 °F 5.0 °F 67% 29.90 in 10.0 mi ESE 19.6 mph - N/A   Overcast
12:35 PM 14.0 °F -3.9 °F 5.0 °F 67% 29.90 in 10.0 mi ESE 20.7 mph - N/A   Scattered Clouds
12:55 PM 14.0 °F -3.9 °F 5.0 °F 67% 29.89 in 10.0 mi ESE 20.7 mph - N/A   Partly Cloudy
1:15 PM 15.8 °F -2.7 °F 5.0 °F 62% 29.88 in 9.0 mi ESE 24.2 mph 27.6 mph N/A   Mostly Cloudy
1:35 PM 15.8 °F -2.3 °F 6.8 °F 68% 29.88 in 9.0 mi SE 23.0 mph - N/A   Scattered Clouds
1:55 PM 15.8 °F -1.9 °F 6.8 °F 68% 29.88 in 10.0 mi ESE 21.9 mph 27.6 mph N/A   Clear
2:15 PM 15.8 °F -2.7 °F 6.8 °F 68% 29.89 in 8.0 mi SE 24.2 mph 31.1 mph N/A   Clear
2:35 PM 15.8 °F -1.1 °F 6.8 °F 68% 29.89 in 10.0 mi ESE 19.6 mph - N/A   Partly Cloudy
2:55 PM 15.8 °F -1.1 °F 8.6 °F 73% 29.90 in 10.0 mi East 19.6 mph - N/A   Partly Cloudy
3:15 PM 14.0 °F -3.4 °F 8.6 °F 79% 29.90 in 10.0 mi East 19.6 mph 24.2 mph N/A   Partly Cloudy
3:35 PM 12.2 °F -6.3 °F 8.6 °F 85% 29.90 in 10.0 mi East 20.7 mph - N/A   Scattered Clouds
3:55 PM 12.2 °F -6.3 °F 6.8 °F 79% 29.90 in 8.0 mi East 20.7 mph - N/A   Partly Cloudy
4:15 PM 12.2 °F -6.3 °F 6.8 °F 79% 29.90 in 7.0 mi East 20.7 mph - N/A   Partly Cloudy
4:35 PM 10.4 °F -8.6 °F 6.8 °F 85% 29.90 in 7.0 mi East 20.7 mph - N/A   Clear
4:55 PM 10.4 °F -8.6 °F 6.8 °F 85% 29.90 in 9.0 mi East 20.7 mph - N/A   Clear
5:15 PM 10.4 °F -8.2 °F 6.8 °F 85% 29.91 in 8.0 mi East 19.6 mph - N/A   Clear
5:35 PM 10.4 °F -8.6 °F 6.8 °F 85% 29.91 in 6.0 mi East 20.7 mph - N/A   Partly Cloudy
5:55 PM 10.4 °F -8.2 °F 6.8 °F 85% 29.91 in 8.0 mi East 19.6 mph - N/A   Mostly Cloudy
6:15 PM 10.4 °F -9.1 °F 6.8 °F 85% 29.92 in 8.0 mi East 21.9 mph - N/A   Overcast
6:35 PM 10.4 °F -8.6 °F 6.8 °F 85% 29.92 in 10.0 mi East 20.7 mph - N/A   Mostly Cloudy
6:55 PM 10.4 °F -8.2 °F 6.8 °F 85% 29.93 in 9.0 mi East 19.6 mph - N/A   Overcast
7:15 PM 10.4 °F -9.1 °F 6.8 °F 85% 29.92 in 9.0 mi East 21.9 mph - N/A   Overcast
7:35 PM 10.4 °F -9.5 °F 6.8 °F 85% 29.93 in 5.0 mi East 23.0 mph - N/A   Overcast
7:55 PM 10.4 °F -9.1 °F 6.8 °F 85% 29.93 in 5.0 mi East 21.9 mph - N/A   Overcast
8:15 PM 10.4 °F -8.6 °F 6.8 °F 85% 29.94 in 8.0 mi East 20.7 mph - N/A   Overcast
8:35 PM 10.4 °F -7.2 °F 6.8 °F 85% 29.95 in 10.0 mi ESE 17.3 mph - N/A   Overcast
8:55 PM 10.4 °F -6.6 °F 6.8 °F 85% 29.95 in 10.0 mi ESE 16.1 mph - N/A   Overcast
9:15 PM 10.4 °F -6.0 °F 6.8 °F 85% 29.95 in 10.0 mi ESE 15.0 mph - N/A   Overcast
9:35 PM 10.4 °F -5.4 °F 6.8 °F 85% 29.95 in 10.0 mi ESE 13.8 mph - N/A   Overcast
9:55 PM 12.2 °F -3.1 °F 6.8 °F 79% 29.95 in 10.0 mi ESE 13.8 mph - N/A   Mostly Cloudy
10:15 PM 12.2 °F -3.7 °F 6.8 °F 79% 29.95 in 10.0 mi ESE 15.0 mph - N/A   Overcast
10:35 PM 14.0 °F -2.5 °F 8.6 °F 79% 29.95 in 10.0 mi ESE 17.3 mph - N/A   Mostly Cloudy
10:55 PM 14.0 °F -3.0 °F 8.6 °F 79% 29.95 in 10.0 mi SE 18.4 mph - N/A   Overcast
11:15 PM 14.0 °F -2.0 °F 8.6 °F 79% 29.95 in 10.0 mi ESE 16.1 mph - N/A   Overcast
11:35 PM 14.0 °F -2.5 °F 8.6 °F 79% 29.95 in 10.0 mi ESE 17.3 mph - N/A   Overcast
11:55 PM 14.0 °F -2.5 °F 8.6 °F 79% 29.95 in 10.0 mi ESE 17.3 mph - N/A   Overcast